Weather reports worldwide

Advertisment
Riga, Latvia (26422): temperature & dewpoint: 14.10.2020 17:00:00 - 20.10.2020 17:00:00 (EEST)Riga, Latvia (26422): wind speed & gusts: 14.10.2020 17:00:00 - 20.10.2020 17:00:00 (EEST)Riga, Latvia (26422): wind direction: 14.10.2020 17:00:00 - 20.10.2020 17:00:00 (EEST)Riga, Latvia (26422): reduced air pressure: 14.10.2020 17:00:00 - 20.10.2020 17:00:00 (EEST)Riga, Latvia (26422): visibility: 14.10.2020 17:00:00 - 20.10.2020 17:00:00 (EEST)Riga, Latvia (26422): sunshine duration: 14.10.2020 17:00:00 - 20.10.2020 17:00:00 (EEST)Riga, Latvia (26422): precipitation: 14.10.2020 17:00:00 - 20.10.2020 17:00:00 (EEST)
Date & Time tt [°C] td [°C] ff [km/h] ff [kn] fx [km/h] fx [kn] dd ppp [hPa] vv [km] sd [min] rr [mm]
20.10.2020 17:00:00 - - - - - - - - - - -
20.10.2020 16:00:00 - - - - - - - - - - -
20.10.2020 15:00:00 8,8 2,7 11 6 28 15 NW 1021,3 20 0 0,0
20.10.2020 14:00:00 - - - - - - - - - - -
20.10.2020 13:00:00 - - - - - - - - - - -
20.10.2020 12:00:00 7,5 3,5 12 7 26 14 W 1020,6 20 1 0,0
20.10.2020 11:00:00 - - - - - - - - - - -
20.10.2020 10:00:00 - - - - - - - - - - -
20.10.2020 09:00:00 5,7 4,0 11 6 23 13 WNW 1018,6 20 0 0,0
20.10.2020 08:00:00 - - - - - - - - - - -
20.10.2020 07:00:00 - - - - - - - - - - -
20.10.2020 06:00:00 5,7 4,0 19 10 47 25 NW 1016,4 20 0 0,1
20.10.2020 05:00:00 - - - - - - - - - - -
20.10.2020 04:00:00 - - - - - - - - - - -
20.10.2020 03:00:00 4,7 1,8 18 10 31 17 W 1014,3 20 0 0,0
20.10.2020 02:00:00 - - - - - - - - - - -
20.10.2020 01:00:00 - - - - - - - - - - -
20.10.2020 00:00:00 5,7 1,7 12 7 30 16 W 1013,6 20 0 0,0
19.10.2020 23:00:00 - - - - - - - - - - -
19.10.2020 22:00:00 - - - - - - - - - - -
19.10.2020 21:00:00 6,5 1,4 16 9 35 19 WNW 1012,2 20 0 0,2
19.10.2020 20:00:00 - - - - - - - - - - -
19.10.2020 19:00:00 - - - - - - - - - - -
19.10.2020 18:00:00 7,3 -1,7 19 11 45 24 WNW 1011,0 20 0 0,0
19.10.2020 17:00:00 - - - - - - - - - - -
19.10.2020 16:00:00 - - - - - - - - - - -
19.10.2020 15:00:00 7,9 -1,4 30 16 58 31 WNW 1009,2 20 0 0,0
19.10.2020 14:00:00 - - - - - - - - - - -
19.10.2020 13:00:00 - - - - - - - - - - -
19.10.2020 12:00:00 6,3 0,8 16 9 34 18 W 1008,2 20 0 0,0
19.10.2020 11:00:00 - - - - - - - - - - -
19.10.2020 10:00:00 - - - - - - - - - - -
19.10.2020 09:00:00 2,8 -0,2 12 7 28 15 WSW 1007,2 20 0 0,0
19.10.2020 08:00:00 - - - - - - - - - - -
19.10.2020 07:00:00 - - - - - - - - - - -
19.10.2020 06:00:00 2,7 1,0 18 10 32 17 WSW 1006,3 20 0 0,0
19.10.2020 05:00:00 - - - - - - - - - - -
19.10.2020 04:00:00 - - - - - - - - - - -
19.10.2020 03:00:00 3,4 1,2 11 6 28 15 WSW 1005,9 20 0 0,0
19.10.2020 02:00:00 - - - - - - - - - - -
19.10.2020 01:00:00 - - - - - - - - - - -
19.10.2020 00:00:00 3,8 1,4 12 7 36 19 W 1004,6 20 0 0,0
18.10.2020 23:00:00 - - - - - - - - - - -
18.10.2020 22:00:00 - - - - - - - - - - -
18.10.2020 21:00:00 4,9 2,4 20 11 39 21 W 1003,0 20 0 0,0
18.10.2020 20:00:00 - - - - - - - - - - -
18.10.2020 19:00:00 - - - - - - - - - - -
18.10.2020 18:00:00 7,2 1,8 18 10 44 24 W 1000,5 20 0 0,0
18.10.2020 17:00:00 - - - - - - - - - - -
18.10.2020 16:00:00 - - - - - - - - - - -
18.10.2020 15:00:00 6,9 5,5 13 7 29 16 W 998,9 20 0 0,0
18.10.2020 14:00:00 - - - - - - - - - - -
18.10.2020 13:00:00 - - - - - - - - - - -
18.10.2020 12:00:00 6,3 5,3 11 6 29 16 W 998,8 6 0 0,6
18.10.2020 11:00:00 - - - - - - - - - - -
18.10.2020 10:00:00 - - - - - - - - - - -
18.10.2020 09:00:00 4,0 2,0 20 11 34 18 SSW 1000,7 20 0 0,0
18.10.2020 08:00:00 - - - - - - - - - - -
18.10.2020 07:00:00 - - - - - - - - - - -
18.10.2020 06:00:00 3,0 0,7 14 8 23 12 SSW 1004,3 20 0 0,1
18.10.2020 05:00:00 - - - - - - - - - - -
18.10.2020 04:00:00 - - - - - - - - - - -
18.10.2020 03:00:00 3,4 -0,9 16 8 23 12 SSW 1007,6 20 0 0,0
18.10.2020 02:00:00 - - - - - - - - - - -
18.10.2020 01:00:00 - - - - - - - - - - -
18.10.2020 00:00:00 3,7 -0,8 7 4 14 7 S 1011,1 20 0 0,0
17.10.2020 23:00:00 - - - - - - - - - - -
17.10.2020 22:00:00 - - - - - - - - - - -
17.10.2020 21:00:00 4,1 -1,1 6 3 11 6 SSW 1013,5 20 0 0,0
17.10.2020 20:00:00 - - - - - - - - - - -
17.10.2020 19:00:00 - - - - - - - - - - -
17.10.2020 18:00:00 6,0 -2,2 4 2 11 6 S 1015,7 20 0 0,0
17.10.2020 17:00:00 - - - - - - - - - - -
17.10.2020 16:00:00 - - - - - - - - - - -
17.10.2020 15:00:00 6,9 -2,1 6 4 19 10 SSE 1017,6 20 0 0,0
17.10.2020 14:00:00 - - - - - - - - - - -
17.10.2020 13:00:00 - - - - - - - - - - -
17.10.2020 12:00:00 6,3 -2,4 6 3 14 8 SSE 1020,2 20 0 0,0
17.10.2020 11:00:00 - - - - - - - - - - -
17.10.2020 10:00:00 - - - - - - - - - - -
17.10.2020 09:00:00 4,8 0,5 4 2 11 6 S 1020,9 20 0 0,0
17.10.2020 08:00:00 - - - - - - - - - - -
17.10.2020 07:00:00 - - - - - - - - - - -
17.10.2020 06:00:00 5,0 -2,6 13 7 19 10 SE 1021,3 20 0 0,0
17.10.2020 05:00:00 - - - - - - - - - - -
17.10.2020 04:00:00 - - - - - - - - - - -
17.10.2020 03:00:00 5,1 -0,6 6 3 10 6 E 1022,1 20 0 0,0
17.10.2020 02:00:00 - - - - - - - - - - -
17.10.2020 01:00:00 - - - - - - - - - - -
17.10.2020 00:00:00 5,6 0,3 7 4 16 9 ENE 1022,2 20 0 0,0
16.10.2020 23:00:00 - - - - - - - - - - -
16.10.2020 22:00:00 - - - - - - - - - - -
16.10.2020 21:00:00 6,4 -1,3 6 4 13 7 ENE 1021,7 20 0 0,0
16.10.2020 20:00:00 - - - - - - - - - - -
16.10.2020 19:00:00 - - - - - - - - - - -
16.10.2020 18:00:00 6,6 0,2 9 5 24 13 NE 1020,4 20 0 0,0
16.10.2020 17:00:00 - - - - - - - - - - -
16.10.2020 16:00:00 - - - - - - - - - - -
16.10.2020 15:00:00 7,6 1,8 14 7 23 13 NE 1019,8 20 0 0,0
16.10.2020 14:00:00 - - - - - - - - - - -
16.10.2020 13:00:00 - - - - - - - - - - -
16.10.2020 12:00:00 7,3 2,7 13 7 21 11 NE 1019,0 20 1 0,0
16.10.2020 11:00:00 - - - - - - - - - - -
16.10.2020 10:00:00 - - - - - - - - - - -
16.10.2020 09:00:00 4,9 4,1 10 5 16 9 NE 1018,0 15 0 0,6
16.10.2020 08:00:00 - - - - - - - - - - -
16.10.2020 07:00:00 - - - - - - - - - - -
16.10.2020 06:00:00 4,7 3,4 6 3 11 6 NNE 1017,0 17 0 0,1
16.10.2020 05:00:00 - - - - - - - - - - -
16.10.2020 04:00:00 - - - - - - - - - - -
16.10.2020 03:00:00 4,2 2,3 8 4 18 10 NE 1016,9 20 0 0,0
16.10.2020 02:00:00 - - - - - - - - - - -
16.10.2020 01:00:00 - - - - - - - - - - -
16.10.2020 00:00:00 6,8 3,7 12 6 24 13 NE 1016,3 20 0 0,0
15.10.2020 23:00:00 - - - - - - - - - - -
15.10.2020 22:00:00 - - - - - - - - - - -
15.10.2020 21:00:00 8,3 4,4 14 7 21 11 E 1015,6 20 0 0,0
15.10.2020 20:00:00 - - - - - - - - - - -
15.10.2020 19:00:00 - - - - - - - - - - -
15.10.2020 18:00:00 7,8 5,7 9 5 21 11 NE 1015,2 20 0 0,0
15.10.2020 17:00:00 - - - - - - - - - - -
15.10.2020 16:00:00 - - - - - - - - - - -
15.10.2020 15:00:00 7,3 6,3 13 7 24 13 NE 1014,5 20 0 0,1
15.10.2020 14:00:00 - - - - - - - - - - -
15.10.2020 13:00:00 - - - - - - - - - - -
15.10.2020 12:00:00 - - - - - - - - - - -
15.10.2020 11:00:00 - - - - - - - - - - -
15.10.2020 10:00:00 - - - - - - - - - - -
15.10.2020 09:00:00 7,5 6,7 15 8 27 14 ENE 1012,5 9 0 0,5
15.10.2020 08:00:00 - - - - - - - - - - -
15.10.2020 07:00:00 - - - - - - - - - - -
15.10.2020 06:00:00 7,3 6,8 11 6 24 13 NE 1011,5 4,5 0 0,2
15.10.2020 05:00:00 - - - - - - - - - - -
15.10.2020 04:00:00 - - - - - - - - - - -
15.10.2020 03:00:00 7,2 6,7 13 7 29 15 ENE 1011,8 3,7 0 0,2
15.10.2020 02:00:00 - - - - - - - - - - -
15.10.2020 01:00:00 - - - - - - - - - - -
15.10.2020 00:00:00 7,6 6,6 17 9 31 17 ENE 1011,9 18 0 0,6
14.10.2020 23:00:00 - - - - - - - - - - -
14.10.2020 22:00:00 - - - - - - - - - - -
14.10.2020 21:00:00 7,6 6,9 17 9 40 22 ENE 1012,3 9 0 3,9
14.10.2020 20:00:00 - - - - - - - - - - -
14.10.2020 19:00:00 - - - - - - - - - - -
14.10.2020 18:00:00 - - - - - - - - - - -
14.10.2020 17:00:00 - - - - - - - - - - -

tt = temperature
td = dewpoint
ff = wind speed
fx = gusts
dd = wind direction
ppp = reduced air pressure
vv = visibility
sd = sunshine duration
rr = precipitation

Next stations